Starlink 3807

operational
NORAD ID: 52353 Int'l Des: 2022-045 Owner: SPXS Country: US Constellation: starlink
LEOCIRCULAR

Starlink 3807について

説明を読み込み中...

リアルタイム位置

3D地球を読み込み中...

次回通過

高度履歴

Altitude vs Time

uPlot chart will show altitude changes over time

軌道要素

1 52353U 22045Y 25353.27715854 .00000277 00000-0 35479-4 0 9996
2 52353 53.2165 200.1064 0001455 87.5778 272.5381 15.08838192203640
Epoch: Dec 19, 2025 • Age: 21 hours

現在のステータス

高度 542.7 km
速度 7.60 km/s
衛星直下点 40.70°N, 93.6°E
打ち上げ日 Apr 29, 2022
運用期間 3.6 years
タイプ internet

技術仕様

分類 Payload
質量 297.00 kg
乾燥質量 275.00 kg
総質量 297.00 kg
長さ 0.20 m
直径 2.80 m
スパン 9.00 m
形状 Box + pan
製造者 SPXS
バスタイプ Starlink
フェーズステータス In Orbit
所有者/国 SPXS/US

大規模コンステレーション

Loading constellations...